Flag for U.S.A. Weather past 2 weeks in Owensboro, Kentucky, U.S.A.

Now
83 °F

Sunny.


Feels Like: 85 °F
Forecast: 74 / 92 °F
Wind: 6 mph from Southeast

Location: Owensboro / Daviess

Current Time: Aug 20, 2014 at 7:51:56 PM

Latest Report: Aug 20, 2014 at 6:56 PM


Visibility: 10 mi

Pressure: 29.96 "Hg

Humidity: 59%

Dew point: 67 °F

Location of OwensboroLocation

Historic Weather in Owensboro — Graph

°F

Owensboro temperature yesterday

Maximum temperature yesterday: 90 °F (at 3:56 PM)
Minimum temperature yesterday: 66 °F (at 6:03 AM)
Average temperature yesterday: 77 °F

Past Weeks' High & Low Weather Summary

 TemperatureHumidityPressure
High90 °F (Aug 19, 3:56 PM)100% (Aug 6, 4:56 AM)30.10 "Hg (Aug 6, 4:56 AM)
Low56 °F (Aug 14, 5:56 AM)42% (Aug 13, 1:56 PM)29.79 "Hg (Aug 19, 5:56 PM)
Average75 °F80%29.95 "Hg
* Reported Aug 5 5:56 PM — Aug 20 5:56 PM, Owensboro, Weather by CustomWeather, © 2014

Note: Actual official high and low records may vary slightly from our data, if they occured in-between our weather recording intervals... More about our weather records

Advertising

Owensboro weather history for previous 24 hours

 ConditionsComfort  
Time TempWeatherWind HumidityBarometerVisibility
5:56 PM
Aug 20
85 °FSunny.No wind55%29.95 "Hg10 mi
4:56 PM86 °FPassing clouds.7 mph48%29.96 "Hg10 mi
3:56 PM84 °FBroken clouds.12 mph65%29.96 "Hg10 mi
2:56 PM87 °FBroken clouds.14 mph65%29.94 "Hg10 mi
1:56 PM88 °FPartly sunny.8 mph72%29.99 "Hg10 mi
12:56 PM87 °FScattered clouds.5 mph70%29.96 "Hg10 mi
11:56 AM86 °FPartly sunny.7 mph75%29.97 "Hg10 mi
10:56 AM85 °FPassing clouds.No wind80%29.95 "Hg10 mi
9:56 AM85 °FSunny.6 mph77%29.94 "Hg10 mi
8:56 AM81 °FSunny.3 mph85%29.92 "Hg10 mi
7:56 AM76 °FSunny.7 mph96%29.91 "Hg10 mi
6:56 AM73 °FClear.No wind100%29.89 "Hg8 mi
5:56 AM73 °FClear.No wind100%29.89 "Hg10 mi
4:56 AM71 °FClear.No wind100%29.88 "Hg9 mi
3:56 AM72 °FClear.No wind100%29.85 "Hg10 mi
2:56 AM74 °FPassing clouds.No wind94%29.85 "Hg10 mi
1:56 AM73 °FPassing clouds.No wind97%29.85 "Hg10 mi
12:56 AM74 °FPassing clouds.No wind94%29.86 "Hg10 mi
11:56 PM
Aug 19
75 °FClear.3 mph91%29.85 "Hg10 mi
10:56 PM76 °FClear.6 mph94%29.84 "Hg10 mi
9:56 PM77 °FClear.5 mph93%29.84 "Hg10 mi
8:56 PM80 °FPassing clouds.5 mph88%29.83 "Hg10 mi
7:56 PM82 °FPartly sunny.No wind79%29.81 "Hg10 mi
Weather by CustomWeather, © 2014

See weather overviewHow to use our weather pages